EW7714 Weather Reports


time (UTC)temp
C
wind
direction
speed
KPH
gust
KPH
rain 1hr
cm
rain 24hr
cm
rain mn
cm
humidity
%
barometer
mb
20260906024613 25 212 0.0 0.0 0.00 0.13 0.13 98 1011.6
20260906023104 25 212 0.0 0.0 0.00 0.13 0.13 98 1011.5
20260906023004 25 212 0.0 0.0 0.00 0.13 0.13 98 1011.8
20260906023000 25 212 0.0 0.0 0.00 0.13 0.13 98 1011.4
20260906022003 25 212 0.0 0.0 0.00 0.13 0.13 98 1011.5
20260906021600 25 212 0.0 0.0 0.00 0.13 0.13 98 1011.1
20260906021003 25 212 0.0 0.0 0.00 0.13 0.13 98 1011.4
20260906020101 25 212 0.0 0.0 0.00 0.13 0.13 98 1011.0
20260906020004 25 212 0.0 0.0 0.00 0.13 0.13 98 1011.3
20260906020000 25 212 0.0 0.0 0.00 0.13 0.13 98 1011.0
20260906015004 25 212 0.0 0.0 0.00 0.13 0.13 98 1011.2
20260906014559 25 212 0.0 0.0 0.00 0.13 0.13 97 1010.9
20260906014002 26 212 0.0 1.6 0.00 0.13 0.13 97 1011.2
20260906013109 26 212 0.0 1.6 0.00 0.13 0.13 97 1010.8
20260906013003 26 212 0.0 1.6 0.00 0.13 0.13 97 1011.1
20260906012002 26 212 0.0 4.8 0.00 0.13 0.13 97 1011.1
20260906011559 26 212 0.0 1.6 0.00 0.13 0.13 97 1010.8
20260906011003 26 212 0.0 3.2 0.00 0.13 0.13 97 1011.3
20260906010059 26 209 0.0 1.6 0.00 0.13 0.13 97 1011.0
20260906010007 26 209 0.0 1.6 0.00 0.13 0.13 97 1011.4
20260906010002 26 209 0.0 1.6 0.00 0.13 0.13 97 1011.1
20260906005003 26 209 0.0 1.6 0.00 0.13 0.13 97 1011.3
20260906004600 26 209 0.0 1.6 0.00 0.13 0.13 97 1011.0
20260906004002 26 209 0.0 1.6 0.00 0.13 0.13 97 1011.4
20260906003100 26 209 0.0 0.0 0.00 0.13 0.13 96 1011.0
20260906003003 26 209 0.0 0.0 0.00 0.13 0.13 96 1011.3
20260906002002 27 209 0.0 0.0 0.00 0.13 0.13 96 1011.3
20260906001607 27 209 0.0 0.0 0.00 0.13 0.13 96 1010.9
20260906000059 27 209 0.0 0.0 0.00 0.13 0.13 96 1011.0
20260906000003 27 209 0.0 0.0 0.00 0.13 0.13 96 1011.4
20260905235003 27 209 0.0 0.0 0.00 0.13 0.13 96 1011.4
20260905234559 27 209 0.0 0.0 0.00 0.13 0.13 96 1011.0
20260905233103 27 209 0.0 0.0 0.00 0.13 0.13 96 1010.9
20260905233003 27 209 0.0 0.0 0.00 0.13 0.13 96 1011.2
20260905232002 27 209 0.0 0.0 0.00 0.13 0.13 95 1011.3
20260905231600 27 209 0.0 1.6 0.00 0.13 0.13 95 1010.9
20260905231002 27 209 0.0 3.2 0.00 0.13 0.13 95 1011.3
20260905230106 27 209 0.0 1.6 0.00 0.13 0.13 95 1010.8
20260905230005 27 209 0.0 1.6 0.00 0.13 0.13 95 1011.2
20260905230002 27 209 0.0 1.6 0.00 0.13 0.13 95 1010.8
20260905225002 27 209 0.0 3.2 0.00 0.13 0.13 96 1011.2
20260905224616 27 209 0.0 1.6 0.00 0.13 0.13 96 1010.8
20260905224001 27 209 0.0 1.6 0.00 0.13 0.13 97 1011.2
20260905223113 27 209 0.0 0.0 0.00 0.13 0.13 96 1010.7
20260905223003 27 209 0.0 1.6 0.00 0.13 0.13 97 1011.1
20260905222003 27 209 0.0 1.6 0.00 0.13 0.13 97 1011.4
20260905221604 27 209 0.0 1.6 0.00 0.13 0.13 97 1011.1
20260905221003 26 209 0.0 3.2 0.00 0.13 0.13 97 1011.5
20260905220059 26 209 0.0 1.6 0.00 0.13 0.13 97 1011.0
20260905220002 26 209 0.0 1.6 0.00 0.13 0.13 98 1011.3
20260905215002 25 209 0.0 0.0 0.03 0.13 0.13 96 1011.4
20260905214601 25 209 0.0 3.2 0.03 0.13 0.13 96 1011.1
20260905214003 25 209 0.0 3.2 0.03 0.13 0.13 95 1011.6
20260905213103 25 209 1.6 4.8 0.03 0.13 0.13 94 1011.3
20260905213001 25 209 1.6 4.8 0.03 0.13 0.13 94 1011.7
20260905212001 26 186 1.6 3.2 0.03 0.13 0.13 94 1011.8
20260905211558 26 184 1.6 3.2 0.05 0.13 0.13 93 1011.5
20260905210105 26 186 0.0 4.8 0.08 0.13 0.13 93 1011.5
20260905210002 26 169 0.0 4.8 0.08 0.13 0.13 93 1011.5
20260905205002 27 134 1.6 9.7 0.08 0.10 0.10 92 1011.7
20260905204601 27 133 0.0 9.7 0.08 0.10 0.10 93 1011.5
20260905204002 27 146 1.6 8.0 0.08 0.10 0.10 94 1011.9
20260905203100 27 219 0.0 4.8 0.08 0.10 0.10 94 1011.4
20260905203003 27 219 1.6 4.8 0.08 0.10 0.10 95 1011.8
20260905202002 27 204 3.2 6.4 0.08 0.10 0.10 94 1011.9
20260905201559 27 232 1.6 6.4 0.05 0.08 0.08 93 1011.5
20260905201002 28 233 3.2 8.0 0.05 0.08 0.08 91 1011.9
20260905200104 28 215 3.2 9.7 0.03 0.05 0.05 89 1011.5
20260905200002 28 211 3.2 9.7 0.00 0.03 0.03 89 1011.9
20260905195001 30 82 0.0 3.2 0.00 0.03 0.03 88 1012.0
20260905194558 30 78 0.0 3.2 0.00 0.03 0.03 86 1011.8
20260905194002 29 78 0.0 3.2 0.00 0.03 0.03 87 1012.1
20260905193058 29 78 0.0 1.6 0.00 0.03 0.03 90 1011.8
20260905193002 29 78 1.6 1.6 0.00 0.03 0.03 89 1012.2
20260905192002 29 78 0.0 1.6 0.00 0.03 0.03 87 1012.4
20260905191606 30 78 0.0 1.6 0.00 0.03 0.03 86 1012.2
20260905191002 30 78 0.0 3.2 0.00 0.03 0.03 86 1012.6
20260905190103 30 78 0.0 3.2 0.00 0.03 0.03 84 1012.4
20260905190001 30 78 1.6 3.2 0.00 0.03 0.03 83 1012.7
20260905185002 31 82 1.6 3.2 0.00 0.03 0.03 82 1012.8
20260905184603 31 82 0.0 4.8 0.00 0.03 0.03 83 1012.5
20260905183100 31 172 0.0 4.8 0.00 0.03 0.03 82 1012.7
20260905183000 30 173 1.6 4.8 0.00 0.03 0.03 82 1013.1
20260905181558 30 165 0.0 8.0 0.00 0.03 0.03 85 1012.8
20260905181002 29 139 1.6 4.8 0.00 0.03 0.03 87 1013.2
20260905180105 29 136 0.0 3.2 0.00 0.03 0.03 87 1013.2
20260905180001 29 136 0.0 3.2 0.00 0.03 0.03 88 1013.2
20260905175002 30 136 1.6 4.8 0.00 0.74 0.03 85 1013.5
20260905174600 30 136 0.0 4.8 0.00 0.71 0.03 84 1013.2
20260905174002 30 105 0.0 4.8 0.00 0.74 0.03 82 1013.6
20260905173125 30 32 0.0 4.8 0.00 0.71 0.03 82 1013.3
20260905173003 30 32 1.6 4.8 0.00 0.74 0.03 82 1013.6
20260905172004 31 12 3.2 4.8 0.00 0.74 0.03 80 1013.5
20260905171600 31 327 0.0 12.9 0.00 0.71 0.03 79 1013.3
20260905171003 32 88 3.2 12.9 0.00 0.74 0.03 78 1013.7
20260905170112 31 88 0.0 8.0 0.00 0.71 0.03 82 1013.5
20260905170003 31 88 3.2 8.0 0.00 3.48 0.03 82 1013.8
20260905165002 30 292 3.2 11.3 0.00 3.48 0.03 85 1013.8
20260905164605 30 292 1.6 11.3 0.00 3.48 0.03 84 1013.5
20260905164002 29 34 1.6 9.7 0.00 3.48 0.03 86 1013.9
20260905163105 28 355 0.0 3.2 0.00 3.48 0.03 90 1013.7
20260905161609 27 261 0.0 0.0 0.00 3.48 0.03 94 1013.7
20260905161000 27 260 0.0 1.6 0.00 3.48 0.03 95 1014.1
20260905160058 27 260 0.0 3.2 0.00 3.48 0.03 95 1013.6
20260905160001 27 260 1.6 3.2 0.00 3.48 0.03 94 1014.0
20260905155002 27 259 0.0 3.2 0.00 3.48 0.03 94 1014.1
20260905154610 27 258 0.0 3.2 0.00 3.48 0.03 93 1013.8
20260905154002 27 258 1.6 3.2 0.00 3.48 0.03 93 1014.1
20260905153058 28 255 0.0 4.8 0.00 3.48 0.03 91 1013.7
20260905153000 28 255 1.6 4.8 0.00 3.48 0.03 91 1014.0
20260905152002 28 239 1.6 4.8 0.00 3.48 0.03 90 1014.0
20260905151558 28 236 0.0 4.8 0.00 3.48 0.03 89 1013.6
20260905151002 27 238 1.6 3.2 0.00 3.48 0.03 91 1014.0
20260905150003 27 236 1.6 6.4 0.00 3.48 0.03 93 1013.9
20260905144558 26 72 0.0 3.2 0.00 3.48 0.03 97 1013.6
20260905144002 26 71 1.6 3.2 0.00 3.48 0.03 99 1013.9
20260905143104 26 71 0.0 1.6 0.00 3.48 0.03 100 1013.6
20260905143002 26 71 0.0 1.6 0.00 3.48 0.03 100 1014.0
20260905142002 26 71 0.0 1.6 0.00 3.48 0.03 100 1013.9
20260905141604 26 71 0.0 1.6 0.00 3.48 0.03 100 1013.6
20260905141002 26 71 1.6 4.8 0.00 3.48 0.03 100 1013.9
20260905140059 26 75 1.6 3.2 0.00 3.48 0.03 100 1013.7
20260905140003 26 75 1.6 4.8 0.00 3.48 0.03 100 1014.0
20260905135002 26 76 1.6 3.2 0.00 3.48 0.03 100 1013.9
20260905134558 26 76 1.6 4.8 0.00 3.48 0.03 100 1013.6
20260905133104 25 76 0.0 3.2 0.00 3.48 0.03 100 1013.5
20260905133001 25 76 1.6 3.2 0.00 3.48 0.03 100 1013.8
20260905132002 25 76 1.6 3.2 0.00 3.48 0.03 100 1013.8
20260905131600 24 76 1.6 3.2 0.00 3.48 0.03 100 1013.5
20260905131000 24 76 1.6 3.2 0.00 3.48 0.03 100 1013.7
20260905130059 23 76 0.0 1.6 0.00 3.48 0.03 100 1013.4
20260905130002 23 76 0.0 1.6 0.00 3.48 0.03 100 1013.8
20260905124559 23 76 0.0 0.0 0.00 3.48 0.03 100 1013.4
20260905124002 23 76 0.0 0.0 0.00 3.48 0.03 100 1013.6
20260905123107 22 76 0.0 1.6 0.00 3.48 0.03 100 1013.2
20260905123002 22 76 0.0 1.6 0.00 3.48 0.03 100 1013.6
20260905122002 22 76 0.0 0.0 0.00 3.48 0.03 100 1013.5
20260905121559 22 76 0.0 0.0 0.00 3.48 0.03 100 1013.3
20260905120100 22 76 0.0 0.0 0.00 3.48 0.03 100 1013.2
20260905115002 23 76 0.0 1.6 0.00 3.48 0.03 100 1013.5
20260905114602 23 76 0.0 3.2 0.00 3.48 0.03 100 1013.1
20260905113058 23 76 0.0 0.0 0.00 3.48 0.03 100 1012.7
20260905113001 23 76 0.0 0.0 0.00 3.48 0.03 100 1013.1
20260905112001 23 76 0.0 0.0 0.00 3.48 0.03 100 1013.0
20260905111558 23 76 0.0 0.0 0.00 3.48 0.03 100 1012.6
20260905110058 23 76 0.0 1.6 0.00 3.48 0.03 100 1012.6
20260905110000 23 76 0.0 1.6 0.00 3.48 0.03 100 1012.9
20260905104558 23 76 0.0 1.6 0.00 3.48 0.03 100 1012.8
20260905104001 23 76 0.0 1.6 0.00 3.48 0.03 100 1013.0
20260905103104 23 76 0.0 0.0 0.00 3.48 0.03 100 1012.8
20260905103001 23 76 0.0 0.0 0.00 3.48 0.03 100 1013.1
20260905102000 23 76 0.0 0.0 0.00 3.48 0.03 100 1013.1
20260905101605 23 76 0.0 0.0 0.00 3.48 0.03 100 1012.8
20260905100959 23 76 0.0 1.6 0.00 3.48 0.03 100 1013.1
20260905100121 23 76 0.0 1.6 0.00 3.48 0.03 100 1012.8
20260905100002 23 76 0.0 1.6 0.00 3.48 0.03 100 1013.1
20260905095002 23 76 0.0 1.6 0.00 3.48 0.03 100 1013.1
20260905094558 23 76 0.0 1.6 0.00 3.48 0.03 100 1012.7
20260905093959 23 76 0.0 1.6 0.00 3.48 0.03 100 1012.8
20260905093057 23 76 0.0 1.6 0.00 3.48 0.03 100 1012.5
20260905093002 23 76 0.0 1.6 0.00 3.48 0.03 100 1012.7
20260905092002 23 76 0.0 3.2 0.03 3.48 0.03 100 1012.8
20260905091606 23 76 0.0 3.2 0.03 3.48 0.03 100 1012.5
20260905091001 23 76 0.0 3.2 0.03 3.48 0.03 100 1012.8
20260905090059 23 76 0.0 1.6 0.03 3.48 0.03 100 1012.5
20260905090000 23 76 0.0 1.6 0.03 3.48 0.03 100 1012.8
20260905084959 23 76 1.6 3.2 0.03 3.48 0.03 100 1012.8
20260905084559 22 76 0.0 3.2 0.03 3.48 0.03 100 1012.6
20260905083959 22 76 0.0 3.2 0.03 3.48 0.03 100 1012.8
20260905083109 22 76 1.6 3.2 0.03 3.48 0.03 100 1012.4
20260905081958 22 76 0.0 0.0 0.00 3.45 0.00 100 1012.7
20260905081600 22 76 0.0 0.0 0.00 3.45 0.00 100 1012.4
20260905080959 22 76 0.0 0.0 0.00 3.45 0.00 100 1012.5
20260905080057 22 76 0.0 0.0 0.00 3.45 0.00 100 1012.3
20260905075959 22 76 0.0 0.0 0.00 3.45 0.00 100 1012.6
20260905074959 23 76 0.0 1.6 0.00 3.45 0.00 100 1012.6
20260905074556 22 76 0.0 1.6 0.00 3.45 0.00 100 1012.3
20260905073959 22 76 0.0 1.6 0.00 3.45 0.00 100 1012.6
20260905073059 22 76 0.0 0.0 0.00 3.45 0.00 100 1012.4
20260905072959 22 76 0.0 0.0 0.00 3.45 0.00 100 1012.7
20260905071959 22 76 0.0 1.6 0.00 3.45 0.00 100 1012.6
20260905071557 22 76 0.0 1.6 0.00 3.45 0.00 100 1012.3
20260905070959 23 76 0.0 0.0 0.00 3.45 0.00 100 1012.6
20260905070059 23 76 0.0 0.0 0.00 3.45 0.00 100 1012.2
20260905070002 23 76 0.0 0.0 0.00 3.45 0.00 100 1012.5
20260905065002 23 76 0.0 0.0 0.00 3.48 0.00 100 1012.3
20260905064616 23 76 0.0 0.0 0.00 3.48 0.00 100 1012.0
20260905064001 23 76 0.0 0.0 0.00 3.48 0.00 100 1012.3
20260905063058 23 76 0.0 0.0 0.00 3.48 0.00 100 1012.0
20260905063002 23 76 0.0 0.0 0.00 3.48 0.00 100 1012.3
20260905062002 23 76 0.0 0.0 0.00 3.48 0.00 100 1012.4
20260905061605 23 76 0.0 0.0 0.00 3.48 0.00 100 1012.1
20260905061002 23 76 0.0 0.0 0.00 3.48 0.00 100 1012.4
20260905060059 23 76 0.0 0.0 0.00 3.48 0.00 100 1012.2
20260905060003 23 76 0.0 0.0 0.00 3.48 0.00 100 1012.5
20260905055004 23 76 0.0 0.0 0.00 3.48 0.00 100 1012.5
20260905054503 23 76 0.0 0.0 0.00 3.48 0.00 100 1012.3
20260905054004 23 76 0.0 0.0 0.00 3.48 0.00 100 1012.6
20260905053101 23 76 0.0 0.0 0.00 3.48 0.00 100 1012.4
20260905053004 23 76 0.0 0.0 0.00 3.48 0.00 100 1012.6
20260905053001 23 76 0.0 0.0 0.00 3.48 0.00 100 1012.4
20260905052004 23 76 0.0 1.6 0.00 3.48 0.00 100 1012.8
20260905051507 23 76 0.0 1.6 0.00 3.48 0.00 100 1012.5
20260905051005 23 76 0.0 0.0 0.00 3.48 0.00 100 1012.8
20260905050007 23 76 0.0 0.0 0.00 3.48 3.48 99 1012.8
20260905050005 23 76 0.0 0.0 0.00 3.48 3.48 99 1012.5
20260905045003 23 76 0.0 0.0 0.00 3.48 3.48 99 1013.0
20260905044608 23 76 0.0 0.0 0.00 3.48 3.48 99 1012.6
20260905044002 23 76 0.0 1.6 0.00 3.48 3.48 99 1013.0
20260905043104 23 76 0.0 1.6 0.00 3.48 3.48 100 1013.0
20260905043003 23 76 0.0 1.6 0.00 3.48 3.48 100 1013.4
20260905042003 23 76 0.0 1.6 0.00 3.48 3.48 100 1013.5
20260905041603 23 76 0.0 0.0 0.00 3.48 3.48 100 1013.2
20260905041003 23 76 0.0 0.0 0.00 3.48 3.48 99 1013.5
20260905040109 23 76 0.0 0.0 0.00 3.48 3.48 99 1013.1
20260905040003 23 76 0.0 0.0 0.00 3.48 3.48 99 1013.1
20260905035003 23 76 0.0 0.0 0.00 3.48 3.48 99 1013.7
20260905034502 23 76 0.0 0.0 0.00 3.48 3.48 99 1013.4
20260905034003 23 76 0.0 0.0 0.00 3.48 3.48 99 1013.8
20260905033102 23 76 0.0 1.6 0.00 3.48 3.48 99 1013.6
20260905033003 23 76 0.0 1.6 0.00 3.48 3.48 99 1013.9
20260905032004 24 76 0.0 1.6 0.00 3.48 3.48 99 1013.9
20260905031603 24 76 0.0 1.6 0.00 3.48 3.48 99 1013.6
20260905031003 24 76 0.0 1.6 0.00 3.48 3.48 99 1013.9
20260905030005 24 76 0.0 3.2 0.00 3.48 3.48 99 1013.5
20260905025002 24 76 1.6 3.2 0.00 3.48 3.48 99 1013.9